Content
SEND FEEDBACK

Daily
Averages
Monthly
Summary
Canada

QUEBEC CITY, QUEBEC


Home > North America > Canada > Quebec
Elevation: 239 feet     Latitude: 46 48N     Longitude: 071 23W

WEATHER
 
SELECT A DAY
Number of Records: 191,965;   Date Range: 6/30/96 - 7/20/14
 
SHARE

PRINT THIS DATA

[ ← Previous Day ]
WEATHER ALMANAC - SEPTEMBER 2, 2013
[ Next Day → ]
[ °C ]   °F
Weather ElementAverageHighLow
Temperature60.2 °F63 °F (8:00 am)58 °F (11:00 pm)
Dewpoint41.1 °F58 °F (8:00 am) (7:00 pm)
Humidity85.8 %94 % (12:00 pm)74 % (2:00 am)
Wind Speed16.4 mph21.9 mph (9:00 am)
Wind Gust33.4 mph (7:00 pm)
Weather ElementAverage
Visibility10.7 mi
Wind DirectionENE (66.8 °)

Weather ElementTotal
Precipitation---
Heating Degree Days4.5 (Base 65)
Growing Degree Days10.5 (Base 50)
Averaged from 41 records on September 2, 2013
WEATHER CONDITIONS BREAKOUT
WIND DIRECTION BREAKOUT
WEATHER BY HOUR - SEPTEMBER 2, 2013
[ °C ]   °F
Local TimeTemperatureDewpointHumidityBarometerVisibilityWind DirectionWind SpeedGust SpeedPrecipitationEventsConditions
1:00 AM60.8 °F53.6 °F77 %29.97 in15.0 miENE (60°)13.8 mphMostly Cloudy
2:00 AM60.0 °F54.0 °F74 %29.93 inEast (80°)9.2 mph
2:00 AM60.8 °F53.6 °F77 %29.95 in15.0 miENE (60°)11.5 mphScattered Clouds
3:00 AM59.0 °F53.6 °F82 %29.95 in15.0 miENE (60°)11.5 mphPartly Cloudy
4:00 AM59.0 °F53.6 °F82 %29.94 in15.0 miENE (60°)11.5 mphScattered Clouds
5:00 AM60.8 °F53.6 °F77 %29.92 in15.0 miENE (60°)15.0 mphScattered Clouds
5:00 AM60.0 °F54.0 °F76 %29.90 inEast (80°)10.4 mph
6:00 AM62.6 °F57.2 °F82 %29.92 in20.0 miENE (70°)16.1 mph26.5 mphOvercast
7:00 AM62.6 °F57.2 °F82 %29.93 in20.0 miENE (70°)10.4 mphOvercast
8:00 AM62.6 °F57.2 °F82 %29.91 in20.0 miENE (70°)16.1 mph25.3 mphOvercast
8:00 AM63.0 °F58.0 °F78 %29.88 inENE (70°)15.0 mph
9:00 AM62.6 °F57.2 °F82 %29.92 in20.0 miENE (70°)21.9 mph28.8 mphOvercast
9:50 AM62.6 °F0.0 °F20.0 miENE (70°)16.1 mph29.9 mphOvercast
10:00 AM62.6 °F57.2 °F82 %29.93 in20.0 miENE (70°)16.1 mph27.6 mphOvercast
10:24 AM62.6 °F0.0 °F20.0 miENE (70°)20.7 mph27.6 mphRainLight Rain Showers
10:53 AM60.8 °F0.0 °F5.0 miENE (60°)16.1 mph26.5 mphRainRain Showers
11:00 AM60.0 °F58.0 °F90 %29.89 inENE (70°)12.7 mph
11:00 AM60.8 °F57.2 °F88 %29.92 in5.0 miENE (60°)18.4 mph25.3 mphRainRain Showers
11:21 AM59.0 °F0.0 °F3.0 miENE (70°)17.3 mph25.3 mphRainLight Rain Showers
11:39 AM59.0 °F0.0 °F5.0 miENE (60°)20.7 mph26.5 mphRainLight Rain Showers
12:00 PM59.0 °F57.2 °F94 %29.91 in6.0 miENE (60°)15.0 mph25.3 mphRainLight Rain Showers
1:00 PM59.0 °F57.2 °F94 %29.90 in3.0 miENE (60°)17.3 mph28.8 mphRainRain Showers
1:29 PM59.0 °F0.0 °F4.0 miENE (60°)13.8 mph25.3 mphRainLight Rain Showers
2:00 PM59.0 °F58.0 °F94 %29.87 inENE (70°)12.7 mph
2:00 PM59.0 °F57.2 °F94 %29.89 in3.0 miENE (60°)19.6 mph31.1 mphRainLight Rain Showers
2:10 PM59.0 °F0.0 °F1.5 miENE (70°)16.1 mph26.5 mphRainRain Showers
2:23 PM59.0 °F0.0 °F5.0 miENE (60°)18.4 mph31.1 mphRainLight Rain Showers
3:00 PM59.0 °F57.2 °F94 %29.87 in7.0 miENE (60°)18.4 mph25.3 mphRainLight Rain Showers
4:00 PM59.0 °F57.2 °F94 %29.85 in6.0 miENE (70°)19.6 mph28.8 mphRainLight Rain Showers
4:38 PM60.8 °F0.0 °F8.0 miENE (70°)16.1 mph28.8 mphOvercast
5:00 PM60.8 °F57.2 °F88 %29.83 in8.0 miENE (70°)18.4 mph27.6 mphOvercast
5:00 PM60.0 °F58.0 °F91 %29.80 inEast (80°)12.7 mph
6:00 PM60.8 °F57.2 °F88 %29.82 in8.0 miENE (70°)20.7 mph29.9 mphRainLight Rain Showers
7:00 PM60.8 °F57.2 °F88 %29.81 in8.0 miENE (70°)21.9 mph33.4 mphOvercast
8:00 PM59.0 °F55.4 °F88 %29.81 in10.0 miENE (60°)21.9 mph29.9 mphOvercast
9:00 PM59.0 °F55.4 °F88 %29.80 in10.0 miENE (60°)18.4 mph28.8 mphOvercast
9:22 PM59.0 °F0.0 °F10.0 miENE (70°)21.9 mph28.8 mphRainLight Rain Showers
10:00 PM59.0 °F55.4 °F88 %29.79 in12.0 miENE (60°)21.9 mph28.8 mphRainLight Rain Showers
10:41 PM59.0 °F0.0 °F12.0 miENE (70°)19.6 mph25.3 mphRainLight Rain Showers
11:00 PM58.0 °F56.0 °F91 %29.76 inEast (80°)9.2 mph
11:00 PM59.0 °F55.4 °F88 %29.79 in10.0 miENE (70°)18.4 mph26.5 mphRainLight Rain Showers
Hourly data recorded from CYQB, located miles away from Quebec City, Quebec







STORIES FROM OUR PARTNERS